Location: Bon Acre
(42.6442°N, 73.5758°W)
Time: 02:26:03
(UTC+00:00)

IRS-1C - Pass Details

Date: 14 December 2025
Orbit: 813 x 814 km, 99.0° (Epoch: 17 January)

Event Time Altitude Azimuth Distance (km) Brightness Sun altitude
Rises 22:25:52 0° 161° (SSE) 3,324 7.3 -11.5°
Reaches altitude 10° 22:28:12 10° 161° (SSE) 2,396 6.6 -11.9°
Maximum altitude 22:33:30 82° 74° (ENE) 827 4.1 -12.8°
Drops below altitude 10° 22:38:51 10° 348° (NNW) 2,412 6.5 -13.7°
Sets 22:41:12 0° 347° (NNW) 3,348 7.3 -14.1°
